owner,sensor,date,latitude,longitude,vertical_datum,sea_water_practical_salinity,qcFlag 
TABS,ioos:station:wmo:42051:1,2011-09-01T00:00:00Z,29.6350,-93.6417,2.0,36.0963,11111222 
TABS,ioos:station:wmo:42051:1,2011-09-01T00:30:00Z,29.6350,-93.6417,2.0,36.0991,11111222 
TABS,ioos:station:wmo:42051:1,2011-09-01T01:00:00Z,29.6350,-93.6417,2.0,36.0961,11111222 
TABS,ioos:station:wmo:42051:1,2011-09-01T01:30:00Z,29.6350,-93.6417,2.0,36.0933,11111222 
TABS,ioos:station:wmo:42051:1,2011-09-01T02:00:00Z,29.6350,-93.6417,2.0,36.0939,11111222 
TABS,ioos:station:wmo:42051:1,2011-09-01T02:30:00Z,29.6350,-93.6417,2.0,36.0961,11111222 
TABS,ioos:station:wmo:42051:1,2011-09-01T03:00:00Z,29.6350,-93.6417,2.0,36.0954,11111222 
TABS,ioos:station:wmo:42051:1,2011-09-01T21:30:00Z,29.6350,-93.6417,2.0,33.8776,11111222 
TABS,ioos:station:wmo:42051:1,2011-09-01T22:00:00Z,29.6350,-93.6417,2.0,34.0119,11111222 
TABS,ioos:station:wmo:42051:1,2011-09-01T22:30:00Z,29.6350,-93.6417,2.0,33.9614,11111222 
TABS,ioos:station:wmo:42051:1,2011-09-01T23:00:00Z,29.6350,-93.6417,2.0,33.9566,11111222 
TABS,ioos:station:wmo:42051:1,2011-09-01T23:30:00Z,29.6350,-93.6417,2.0,33.9031,11111222 
TABS,ioos:station:wmo:42051:1,2011-09-02T00:00:00Z,29.6350,-93.6417,2.0,33.7764,11111222 
TABS,ioos:station:wmo:42051:1,2011-09-02T00:30:00Z,29.6350,-93.6417,2.0,33.7175,11111222 
TABS,ioos:station:wmo:42051:1,2011-09-02T01:00:00Z,29.6350,-93.6417,2.0,33.7173,11111222 
TABS,ioos:station:wmo:42051:1,2011-09-02T01:30:00Z,29.6350,-93.6417,2.0,33.7176,11111222 
TABS,ioos:station:wmo:42051:1,2011-09-02T02:00:00Z,29.6350,-93.6417,2.0,33.6698,11111222 
TABS,ioos:station:wmo:42051:1,2011-09-02T02:30:00Z,29.6350,-93.6417,2.0,33.6572,11111222 
TABS,ioos:station:wmo:42051:1,2011-09-02T03:00:00Z,29.6350,-93.6417,2.0,33.5819,11111222 
TABS,ioos:station:wmo:42051:1,2011-09-02T03:30:00Z,29.6350,-93.6417,2.0,33.483,11111222 
TABS,ioos:station:wmo:42051:1,2011-09-02T04:00:00Z,29.6350,-93.6417,2.0,33.4033,11111222 
TABS,ioos:station:wmo:42051:1,2011-09-02T04:30:00Z,29.6350,-93.6417,2.0,33.3336,11111222 
TABS,ioos:station:wmo:42051:1,2011-09-02T05:00:00Z,29.6350,-93.6417,2.0,33.3111,11111222 
TABS,ioos:station:wmo:42051:1,2011-09-02T05:30:00Z,29.6350,-93.6417,2.0,33.3157,11111222 
TABS,ioos:station:wmo:42051:1,2011-09-02T06:00:00Z,29.6350,-93.6417,2.0,33.2582,11111222 
TABS,ioos:station:wmo:42051:1,2011-09-02T06:30:00Z,29.6350,-93.6417,2.0,33.188,11111222 
TABS,ioos:station:wmo:42051:1,2011-09-02T07:00:00Z,29.6350,-93.6417,2.0,33.0407,11111222 
TABS,ioos:station:wmo:42051:1,2011-09-02T07:30:00Z,29.6350,-93.6417,2.0,32.9285,11111222 
TABS,ioos:station:wmo:42051:1,2011-09-02T08:00:00Z,29.6350,-93.6417,2.0,32.8336,11111222 
TABS,ioos:station:wmo:42051:1,2011-09-02T08:30:00Z,29.6350,-93.6417,2.0,32.7261,11111222 
TABS,ioos:station:wmo:42051:1,2011-09-02T09:00:00Z,29.6350,-93.6417,2.0,32.5888,11111222 
TABS,ioos:station:wmo:42051:1,2011-09-02T09:30:00Z,29.6350,-93.6417,2.0,32.5154,11111222 
TABS,ioos:station:wmo:42051:1,2011-09-02T10:00:00Z,29.6350,-93.6417,2.0,32.4117,11111222 
TABS,ioos:station:wmo:42051:1,2011-09-02T10:30:00Z,29.6350,-93.6417,2.0,32.3493,11111222 
TABS,ioos:station:wmo:42051:1,2011-09-02T11:00:00Z,29.6350,-93.6417,2.0,32.3209,11111222 
TABS,ioos:station:wmo:42051:1,2011-09-02T11:30:00Z,29.6350,-93.6417,2.0,32.3173,11111222 
TABS,ioos:station:wmo:42051:1,2011-09-02T12:00:00Z,29.6350,-93.6417,2.0,32.3409,11111222 
TABS,ioos:station:wmo:42051:1,2011-09-02T12:30:00Z,29.6350,-93.6417,2.0,32.3794,11111222 
TABS,ioos:station:wmo:42051:1,2011-09-02T13:00:00Z,29.6350,-93.6417,2.0,32.5991,11111222 
TABS,ioos:station:wmo:42051:1,2011-09-02T13:30:00Z,29.6350,-93.6417,2.0,32.6429,11111222 
TABS,ioos:station:wmo:42051:1,2011-09-02T14:00:00Z,29.6350,-93.6417,2.0,32.6126,11111222 
TABS,ioos:station:wmo:42051:1,2011-09-02T14:30:00Z,29.6350,-93.6417,2.0,32.5757,11111222 
TABS,ioos:station:wmo:42051:1,2011-09-02T15:00:00Z,29.6350,-93.6417,2.0,32.5158,11111222 
TABS,ioos:station:wmo:42051:1,2011-09-02T15:30:00Z,29.6350,-93.6417,2.0,32.5325,11111222 
TABS,ioos:station:wmo:42051:1,2011-09-02T16:00:00Z,29.6350,-93.6417,2.0,32.5259,11111222 
TABS,ioos:station:wmo:42051:1,2011-09-02T16:30:00Z,29.6350,-93.6417,2.0,32.5893,11111222 
TABS,ioos:station:wmo:42051:1,2011-09-02T17:00:00Z,29.6350,-93.6417,2.0,32.6195,11111222 
TABS,ioos:station:wmo:42051:1,2011-09-02T17:30:00Z,29.6350,-93.6417,2.0,32.59,11111222 
TABS,ioos:station:wmo:42051:1,2011-09-02T18:00:00Z,29.6350,-93.6417,2.0,32.4993,11111222 
TABS,ioos:station:wmo:42051:1,2011-09-02T18:30:00Z,29.6350,-93.6417,2.0,32.5132,11111222 
TABS,ioos:station:wmo:42051:1,2011-09-02T19:00:00Z,29.6350,-93.6417,2.0,32.4403,11111222 
TABS,ioos:station:wmo:42051:1,2011-09-02T19:30:00Z,29.6350,-93.6417,2.0,32.386,11111222 
TABS,ioos:station:wmo:42051:1,2011-09-02T20:00:00Z,29.6350,-93.6417,2.0,32.4226,11111222 
TABS,ioos:station:wmo:42051:1,2011-09-02T20:30:00Z,29.6350,-93.6417,2.0,32.5592,11111222 
TABS,ioos:station:wmo:42051:1,2011-09-02T21:00:00Z,29.6350,-93.6417,2.0,32.6747,11111222 
TABS,ioos:station:wmo:42051:1,2011-09-02T21:30:00Z,29.6350,-93.6417,2.0,32.6245,11111222 
TABS,ioos:station:wmo:42051:1,2011-09-02T22:00:00Z,29.6350,-93.6417,2.0,32.6038,11111222 
TABS,ioos:station:wmo:42051:1,2011-09-02T22:30:00Z,29.6350,-93.6417,2.0,32.5992,11111222 
TABS,ioos:station:wmo:42051:1,2011-09-02T23:00:00Z,29.6350,-93.6417,2.0,32.5632,11111222 
TABS,ioos:station:wmo:42051:1,2011-09-02T23:30:00Z,29.6350,-93.6417,2.0,32.585,11111222 
TABS,ioos:station:wmo:42051:1,2011-09-03T00:00:00Z,29.6350,-93.6417,2.0,32.5387,11111222 
TABS,ioos:station:wmo:42051:1,2011-09-03T00:30:00Z,29.6350,-93.6417,2.0,32.4979,11111222 
TABS,ioos:station:wmo:42051:1,2011-09-03T01:00:00Z,29.6350,-93.6417,2.0,32.4201,11111222 
TABS,ioos:station:wmo:42051:1,2011-09-03T01:30:00Z,29.6350,-93.6417,2.0,32.4077,11111222 
TABS,ioos:station:wmo:42051:1,2011-09-03T02:00:00Z,29.6350,-93.6417,2.0,32.3877,11111222 
TABS,ioos:station:wmo:42051:1,2011-09-03T02:30:00Z,29.6350,-93.6417,2.0,32.3855,11111222 
TABS,ioos:station:wmo:42051:1,2011-09-03T03:00:00Z,29.6350,-93.6417,2.0,32.387,11111222 
TABS,ioos:station:wmo:42051:1,2011-09-03T03:30:00Z,29.6350,-93.6417,2.0,32.3884,11111222 
TABS,ioos:station:wmo:42051:1,2011-09-03T04:00:00Z,29.6350,-93.6417,2.0,32.4065,11111222 
TABS,ioos:station:wmo:42051:1,2011-09-03T04:30:00Z,29.6350,-93.6417,2.0,32.3706,11111222 
TABS,ioos:station:wmo:42051:1,2011-09-03T05:00:00Z,29.6350,-93.6417,2.0,32.2973,11111222 
TABS,ioos:station:wmo:42051:1,2011-09-03T05:30:00Z,29.6350,-93.6417,2.0,32.2099,11111222 
TABS,ioos:station:wmo:42051:1,2011-09-03T06:00:00Z,29.6350,-93.6417,2.0,32.1661,11111222 
TABS,ioos:station:wmo:42051:1,2011-09-03T06:30:00Z,29.6350,-93.6417,2.0,32.15,11111222 
TABS,ioos:station:wmo:42051:1,2011-09-03T07:00:00Z,29.6350,-93.6417,2.0,32.1312,11111222 
TABS,ioos:station:wmo:42051:1,2011-09-03T07:30:00Z,29.6350,-93.6417,2.0,32.1188,11111222 
TABS,ioos:station:wmo:42051:1,2011-09-03T08:00:00Z,29.6350,-93.6417,2.0,32.1162,11111222 
TABS,ioos:station:wmo:42051:1,2011-09-03T08:30:00Z,29.6350,-93.6417,2.0,32.113,11111222 
TABS,ioos:station:wmo:42051:1,2011-09-03T09:00:00Z,29.6350,-93.6417,2.0,32.1293,11111222 
TABS,ioos:station:wmo:42051:1,2011-09-03T09:30:00Z,29.6350,-93.6417,2.0,32.1528,11111222 
TABS,ioos:station:wmo:42051:1,2011-09-03T10:00:00Z,29.6350,-93.6417,2.0,32.1567,11111222 
TABS,ioos:station:wmo:42051:1,2011-09-03T10:30:00Z,29.6350,-93.6417,2.0,31.8821,11111222 
TABS,ioos:station:wmo:42051:1,2011-09-03T11:00:00Z,29.6350,-93.6417,2.0,31.8543,11111222 
TABS,ioos:station:wmo:42051:1,2011-09-03T11:30:00Z,29.6350,-93.6417,2.0,31.8402,11111222 
TABS,ioos:station:wmo:42051:1,2011-09-03T12:00:00Z,29.6350,-93.6417,2.0,31.8259,11111222 
TABS,ioos:station:wmo:42051:1,2011-09-03T12:30:00Z,29.6350,-93.6417,2.0,31.7243,11111222 
TABS,ioos:station:wmo:42051:1,2011-09-03T13:00:00Z,29.6350,-93.6417,2.0,31.6605,11111222 
TABS,ioos:station:wmo:42051:1,2011-09-03T13:30:00Z,29.6350,-93.6417,2.0,31.4489,11111222 
TABS,ioos:station:wmo:42051:1,2011-09-03T14:00:00Z,29.6350,-93.6417,2.0,31.3965,11111222 
TABS,ioos:station:wmo:42051:1,2011-09-03T14:30:00Z,29.6350,-93.6417,2.0,31.3025,11111222 
TABS,ioos:station:wmo:42051:1,2011-09-03T15:00:00Z,29.6350,-93.6417,2.0,31.2425,11111222 
TABS,ioos:station:wmo:42051:1,2011-09-03T15:30:00Z,29.6350,-93.6417,2.0,31.1963,11111222 
TABS,ioos:station:wmo:42051:1,2011-09-03T16:00:00Z,29.6350,-93.6417,2.0,31.1202,11111222 
TABS,ioos:station:wmo:42051:1,2011-09-03T16:30:00Z,29.6350,-93.6417,2.0,31.0743,11111222 
TABS,ioos:station:wmo:42051:1,2011-09-03T17:00:00Z,29.6350,-93.6417,2.0,30.9793,11111222 
TABS,ioos:station:wmo:42051:1,2011-09-03T17:30:00Z,29.6350,-93.6417,2.0,30.8862,11111222 
TABS,ioos:station:wmo:42051:1,2011-09-03T18:00:00Z,29.6350,-93.6417,2.0,30.7715,11111222 
TABS,ioos:station:wmo:42051:1,2011-09-03T18:30:00Z,29.6350,-93.6417,2.0,30.7159,11111222 
TABS,ioos:station:wmo:42051:1,2011-09-03T19:00:00Z,29.6350,-93.6417,2.0,30.5895,11111222 
TABS,ioos:station:wmo:42051:1,2011-09-03T19:30:00Z,29.6350,-93.6417,2.0,30.5264,11111222 
TABS,ioos:station:wmo:42051:1,2011-09-03T20:00:00Z,29.6350,-93.6417,2.0,30.4842,11111222 
TABS,ioos:station:wmo:42051:1,2011-09-03T20:30:00Z,29.6350,-93.6417,2.0,30.4154,11111222 
TABS,ioos:station:wmo:42051:1,2011-09-03T21:00:00Z,29.6350,-93.6417,2.0,30.3616,11111222 
TABS,ioos:station:wmo:42051:1,2011-09-03T21:30:00Z,29.6350,-93.6417,2.0,30.2985,11111222 
TABS,ioos:station:wmo:42051:1,2011-09-03T22:00:00Z,29.6350,-93.6417,2.0,30.208,11111222 
TABS,ioos:station:wmo:42051:1,2011-09-03T22:30:00Z,29.6350,-93.6417,2.0,30.1073,11111222 
TABS,ioos:station:wmo:42051:1,2011-09-03T23:00:00Z,29.6350,-93.6417,2.0,30.0297,11111222 
TABS,ioos:station:wmo:42051:1,2011-09-03T23:30:00Z,29.6350,-93.6417,2.0,30.0507,11111222 
TABS,ioos:station:wmo:42051:1,2011-09-04T00:00:00Z,29.6350,-93.6417,2.0,29.9983,11111222 
TABS,ioos:station:wmo:42051:1,2011-09-04T00:30:00Z,29.6350,-93.6417,2.0,29.8503,11111222 
TABS,ioos:station:wmo:42051:1,2011-09-04T01:00:00Z,29.6350,-93.6417,2.0,29.6778,11111222 
TABS,ioos:station:wmo:42051:1,2011-09-04T01:30:00Z,29.6350,-93.6417,2.0,29.4584,11111222 
TABS,ioos:station:wmo:42051:1,2011-09-04T02:00:00Z,29.6350,-93.6417,2.0,29.3065,11111222 
TABS,ioos:station:wmo:42051:1,2011-09-04T02:30:00Z,29.6350,-93.6417,2.0,29.3219,11111222 
TABS,ioos:station:wmo:42051:1,2011-09-04T03:00:00Z,29.6350,-93.6417,2.0,29.3397,11111222 
TABS,ioos:station:wmo:42051:1,2011-09-04T03:30:00Z,29.6350,-93.6417,2.0,29.1938,11111222 
TABS,ioos:station:wmo:42051:1,2011-09-04T04:00:00Z,29.6350,-93.6417,2.0,29.0027,11111222 
TABS,ioos:station:wmo:42051:1,2011-09-04T04:30:00Z,29.6350,-93.6417,2.0,28.9268,11111222 
TABS,ioos:station:wmo:42051:1,2011-09-04T05:00:00Z,29.6350,-93.6417,2.0,28.8542,11111222 
TABS,ioos:station:wmo:42051:1,2011-09-04T05:30:00Z,29.6350,-93.6417,2.0,28.7251,11111222 
TABS,ioos:station:wmo:42051:1,2011-09-04T06:00:00Z,29.6350,-93.6417,2.0,28.6068,11111222 
TABS,ioos:station:wmo:42051:1,2011-09-04T06:30:00Z,29.6350,-93.6417,2.0,28.4656,11111222 
TABS,ioos:station:wmo:42051:1,2011-09-04T07:00:00Z,29.6350,-93.6417,2.0,28.4175,11111222 
TABS,ioos:station:wmo:42051:1,2011-09-04T07:30:00Z,29.6350,-93.6417,2.0,28.4089,11111222 
TABS,ioos:station:wmo:42051:1,2011-09-04T08:00:00Z,29.6350,-93.6417,2.0,28.335,11111222 
TABS,ioos:station:wmo:42051:1,2011-09-04T08:30:00Z,29.6350,-93.6417,2.0,28.3481,11111222 
TABS,ioos:station:wmo:42051:1,2011-09-04T09:00:00Z,29.6350,-93.6417,2.0,28.3402,11111222 
TABS,ioos:station:wmo:42051:1,2011-09-04T09:30:00Z,29.6350,-93.6417,2.0,28.3601,11111222 
TABS,ioos:station:wmo:42051:1,2011-09-04T10:00:00Z,29.6350,-93.6417,2.0,28.3925,11111222 
TABS,ioos:station:wmo:42051:1,2011-09-04T10:30:00Z,29.6350,-93.6417,2.0,28.3923,11111222 
TABS,ioos:station:wmo:42051:1,2011-09-04T11:00:00Z,29.6350,-93.6417,2.0,28.38,11111222 
TABS,ioos:station:wmo:42051:1,2011-09-04T11:30:00Z,29.6350,-93.6417,2.0,28.3436,11111222 
TABS,ioos:station:wmo:42051:1,2011-09-04T12:00:00Z,29.6350,-93.6417,2.0,28.3011,11111222 
TABS,ioos:station:wmo:42051:1,2011-09-04T12:30:00Z,29.6350,-93.6417,2.0,28.2933,11111222 
TABS,ioos:station:wmo:42051:1,2011-09-04T13:00:00Z,29.6350,-93.6417,2.0,28.2491,11111222 
TABS,ioos:station:wmo:42051:1,2011-09-04T13:30:00Z,29.6350,-93.6417,2.0,28.1522,11111222 
TABS,ioos:station:wmo:42051:1,2011-09-04T14:00:00Z,29.6350,-93.6417,2.0,28.1013,11111222 
TABS,ioos:station:wmo:42051:1,2011-09-04T14:30:00Z,29.6350,-93.6417,2.0,28.1062,11111222 
TABS,ioos:station:wmo:42051:1,2011-09-04T15:00:00Z,29.6350,-93.6417,2.0,28.0698,11111222 
TABS,ioos:station:wmo:42051:1,2011-09-04T15:30:00Z,29.6350,-93.6417,2.0,28.0557,11111222 
TABS,ioos:station:wmo:42051:1,2011-09-04T16:00:00Z,29.6350,-93.6417,2.0,28.0668,11111222 
TABS,ioos:station:wmo:42051:1,2011-09-04T16:30:00Z,29.6350,-93.6417,2.0,28.022,11111222 
TABS,ioos:station:wmo:42051:1,2011-09-04T17:00:00Z,29.6350,-93.6417,2.0,27.9803,11111222 
TABS,ioos:station:wmo:42051:1,2011-09-04T17:30:00Z,29.6350,-93.6417,2.0,27.9531,11111222 
TABS,ioos:station:wmo:42051:1,2011-09-04T18:00:00Z,29.6350,-93.6417,2.0,27.9404,11111222 
TABS,ioos:station:wmo:42051:1,2011-09-04T18:30:00Z,29.6350,-93.6417,2.0,27.914,11111222 
TABS,ioos:station:wmo:42051:1,2011-09-04T19:00:00Z,29.6350,-93.6417,2.0,27.8846,11111222 
TABS,ioos:station:wmo:42051:1,2011-09-04T19:30:00Z,29.6350,-93.6417,2.0,27.8698,11111222 
TABS,ioos:station:wmo:42051:1,2011-09-04T20:00:00Z,29.6350,-93.6417,2.0,27.8367,11111222 
TABS,ioos:station:wmo:42051:1,2011-09-04T20:30:00Z,29.6350,-93.6417,2.0,27.6324,11111222 
TABS,ioos:station:wmo:42051:1,2011-09-04T21:00:00Z,29.6350,-93.6417,2.0,27.4122,11111222 
TABS,ioos:station:wmo:42051:1,2011-09-04T21:30:00Z,29.6350,-93.6417,2.0,27.4104,11111222 
TABS,ioos:station:wmo:42051:1,2011-09-04T22:00:00Z,29.6350,-93.6417,2.0,27.4139,11111222 
TABS,ioos:station:wmo:42051:1,2011-09-04T22:30:00Z,29.6350,-93.6417,2.0,27.3932,11111222 
TABS,ioos:station:wmo:42051:1,2011-09-04T23:00:00Z,29.6350,-93.6417,2.0,27.6253,11111222 
TABS,ioos:station:wmo:42051:1,2011-09-04T23:30:00Z,29.6350,-93.6417,2.0,27.4694,11111222 
TABS,ioos:station:wmo:42051:1,2011-09-05T00:00:00Z,29.6350,-93.6417,2.0,27.6945,11111222 
TABS,ioos:station:wmo:42051:1,2011-09-05T00:30:00Z,29.6350,-93.6417,2.0,27.7328,11111222 
TABS,ioos:station:wmo:42051:1,2011-09-05T01:00:00Z,29.6350,-93.6417,2.0,27.7757,11111222 
TABS,ioos:station:wmo:42051:1,2011-09-05T01:30:00Z,29.6350,-93.6417,2.0,27.8443,11111222 
TABS,ioos:station:wmo:42051:1,2011-09-05T02:00:00Z,29.6350,-93.6417,2.0,27.9613,11111222 
TABS,ioos:station:wmo:42051:1,2011-09-05T02:30:00Z,29.6350,-93.6417,2.0,28.0035,11111222 
TABS,ioos:station:wmo:42051:1,2011-09-05T03:00:00Z,29.6350,-93.6417,2.0,28.016,11111222 
TABS,ioos:station:wmo:42051:1,2011-09-05T03:30:00Z,29.6350,-93.6417,2.0,28.0208,11111222 
TABS,ioos:station:wmo:42051:1,2011-09-05T04:00:00Z,29.6350,-93.6417,2.0,28.0243,11111222 
TABS,ioos:station:wmo:42051:1,2011-09-05T04:30:00Z,29.6350,-93.6417,2.0,28.0197,11111222 
TABS,ioos:station:wmo:42051:1,2011-09-05T05:00:00Z,29.6350,-93.6417,2.0,28.0204,11111222 
TABS,ioos:station:wmo:42051:1,2011-09-05T05:30:00Z,29.6350,-93.6417,2.0,28.0387,11111222 
TABS,ioos:station:wmo:42051:1,2011-09-05T06:00:00Z,29.6350,-93.6417,2.0,28.0562,11111222 
TABS,ioos:station:wmo:42051:1,2011-09-05T06:30:00Z,29.6350,-93.6417,2.0,28.0617,11111222 
TABS,ioos:station:wmo:42051:1,2011-09-05T07:00:00Z,29.6350,-93.6417,2.0,28.0585,11111222 
TABS,ioos:station:wmo:42051:1,2011-09-05T07:30:00Z,29.6350,-93.6417,2.0,28.0544,11111222 
TABS,ioos:station:wmo:42051:1,2011-09-05T08:00:00Z,29.6350,-93.6417,2.0,28.0576,11111222 
TABS,ioos:station:wmo:42051:1,2011-09-05T08:30:00Z,29.6350,-93.6417,2.0,28.063,11111222 
TABS,ioos:station:wmo:42051:1,2011-09-05T09:00:00Z,29.6350,-93.6417,2.0,28.0757,11111222 
TABS,ioos:station:wmo:42051:1,2011-09-05T09:30:00Z,29.6350,-93.6417,2.0,28.094,11111222 
TABS,ioos:station:wmo:42051:1,2011-09-05T10:00:00Z,29.6350,-93.6417,2.0,28.1041,11111222 
TABS,ioos:station:wmo:42051:1,2011-09-05T10:30:00Z,29.6350,-93.6417,2.0,28.122,11111222 
TABS,ioos:station:wmo:42051:1,2011-09-05T11:00:00Z,29.6350,-93.6417,2.0,28.1147,11111222 
TABS,ioos:station:wmo:42051:1,2011-09-05T11:30:00Z,29.6350,-93.6417,2.0,28.1129,11111222 
TABS,ioos:station:wmo:42051:1,2011-09-05T12:00:00Z,29.6350,-93.6417,2.0,28.1294,11111222 
TABS,ioos:station:wmo:42051:1,2011-09-05T12:30:00Z,29.6350,-93.6417,2.0,28.1253,11111222 
TABS,ioos:station:wmo:42051:1,2011-09-05T13:00:00Z,29.6350,-93.6417,2.0,28.1262,11111222 
TABS,ioos:station:wmo:42051:1,2011-09-05T13:30:00Z,29.6350,-93.6417,2.0,28.0652,11111222 
TABS,ioos:station:wmo:42051:1,2011-09-05T14:00:00Z,29.6350,-93.6417,2.0,27.9286,11111222 
TABS,ioos:station:wmo:42051:1,2011-09-05T14:30:00Z,29.6350,-93.6417,2.0,27.6901,11111222 
TABS,ioos:station:wmo:42051:1,2011-09-05T15:00:00Z,29.6350,-93.6417,2.0,27.709,11111222 
TABS,ioos:station:wmo:42051:1,2011-09-05T15:30:00Z,29.6350,-93.6417,2.0,27.8084,11111222 
TABS,ioos:station:wmo:42051:1,2011-09-05T16:00:00Z,29.6350,-93.6417,2.0,27.8569,11111222 
TABS,ioos:station:wmo:42051:1,2011-09-05T16:30:00Z,29.6350,-93.6417,2.0,27.8937,11111222 
TABS,ioos:station:wmo:42051:1,2011-09-05T17:00:00Z,29.6350,-93.6417,2.0,27.9299,11111222 
TABS,ioos:station:wmo:42051:1,2011-09-05T17:30:00Z,29.6350,-93.6417,2.0,27.9825,11111222 
TABS,ioos:station:wmo:42051:1,2011-09-05T18:00:00Z,29.6350,-93.6417,2.0,28.084,11111222 
TABS,ioos:station:wmo:42051:1,2011-09-05T18:30:00Z,29.6350,-93.6417,2.0,28.142,11111222 
TABS,ioos:station:wmo:42051:1,2011-09-05T19:00:00Z,29.6350,-93.6417,2.0,28.1811,11111222 
TABS,ioos:station:wmo:42051:1,2011-09-05T19:30:00Z,29.6350,-93.6417,2.0,28.2252,11111222 
TABS,ioos:station:wmo:42051:1,2011-09-05T20:00:00Z,29.6350,-93.6417,2.0,28.2561,11111222 
TABS,ioos:station:wmo:42051:1,2011-09-05T20:30:00Z,29.6350,-93.6417,2.0,28.2985,11111222 
TABS,ioos:station:wmo:42051:1,2011-09-05T21:00:00Z,29.6350,-93.6417,2.0,28.3289,11111222 
TABS,ioos:station:wmo:42051:1,2011-09-05T21:30:00Z,29.6350,-93.6417,2.0,28.3599,11111222 
TABS,ioos:station:wmo:42051:1,2011-09-05T22:00:00Z,29.6350,-93.6417,2.0,28.415,11111222 
TABS,ioos:station:wmo:42051:1,2011-09-05T22:30:00Z,29.6350,-93.6417,2.0,28.4867,11111222 
TABS,ioos:station:wmo:42051:1,2011-09-05T23:00:00Z,29.6350,-93.6417,2.0,28.5688,11111222 
TABS,ioos:station:wmo:42051:1,2011-09-05T23:30:00Z,29.6350,-93.6417,2.0,28.5123,11111222 
TABS,ioos:station:wmo:42051:1,2011-09-06T00:00:00Z,29.6350,-93.6417,2.0,28.5453,11111222 
TABS,ioos:station:wmo:42051:1,2011-09-06T00:30:00Z,29.6350,-93.6417,2.0,28.5372,11111222 
TABS,ioos:station:wmo:42051:1,2011-09-06T01:00:00Z,29.6350,-93.6417,2.0,28.5035,11111222 
TABS,ioos:station:wmo:42051:1,2011-09-06T01:30:00Z,29.6350,-93.6417,2.0,28.4693,11111222 
TABS,ioos:station:wmo:42051:1,2011-09-06T02:00:00Z,29.6350,-93.6417,2.0,28.5034,11111222 
TABS,ioos:station:wmo:42051:1,2011-09-06T02:30:00Z,29.6350,-93.6417,2.0,28.4244,11111222 
TABS,ioos:station:wmo:42051:1,2011-09-06T03:00:00Z,29.6350,-93.6417,2.0,28.3846,11111222 
TABS,ioos:station:wmo:42051:1,2011-09-06T03:30:00Z,29.6350,-93.6417,2.0,28.3752,11111222 
TABS,ioos:station:wmo:42051:1,2011-09-06T04:00:00Z,29.6350,-93.6417,2.0,28.3813,11111222 
TABS,ioos:station:wmo:42051:1,2011-09-06T04:30:00Z,29.6350,-93.6417,2.0,28.3589,11111222 
TABS,ioos:station:wmo:42051:1,2011-09-06T05:00:00Z,29.6350,-93.6417,2.0,28.3575,11111222 
TABS,ioos:station:wmo:42051:1,2011-09-06T05:30:00Z,29.6350,-93.6417,2.0,28.3596,11111222 
TABS,ioos:station:wmo:42051:1,2011-09-06T06:00:00Z,29.6350,-93.6417,2.0,28.3802,11111222 
TABS,ioos:station:wmo:42051:1,2011-09-06T06:30:00Z,29.6350,-93.6417,2.0,28.4063,11111222 
TABS,ioos:station:wmo:42051:1,2011-09-06T07:00:00Z,29.6350,-93.6417,2.0,28.4431,11111222 
TABS,ioos:station:wmo:42051:1,2011-09-06T07:30:00Z,29.6350,-93.6417,2.0,28.4749,11111222 
TABS,ioos:station:wmo:42051:1,2011-09-06T08:00:00Z,29.6350,-93.6417,2.0,28.497,11111222 
TABS,ioos:station:wmo:42051:1,2011-09-06T08:30:00Z,29.6350,-93.6417,2.0,28.5284,11111222 
TABS,ioos:station:wmo:42051:1,2011-09-06T09:00:00Z,29.6350,-93.6417,2.0,28.554,11111222 
TABS,ioos:station:wmo:42051:1,2011-09-06T09:30:00Z,29.6350,-93.6417,2.0,28.5606,11111222 
TABS,ioos:station:wmo:42051:1,2011-09-06T10:00:00Z,29.6350,-93.6417,2.0,28.5625,11111222 
TABS,ioos:station:wmo:42051:1,2011-09-06T10:30:00Z,29.6350,-93.6417,2.0,28.666,11111222 
TABS,ioos:station:wmo:42051:1,2011-09-06T11:00:00Z,29.6350,-93.6417,2.0,28.6535,11111222 
TABS,ioos:station:wmo:42051:1,2011-09-06T11:30:00Z,29.6350,-93.6417,2.0,28.6404,11111222 
TABS,ioos:station:wmo:42051:1,2011-09-06T12:00:00Z,29.6350,-93.6417,2.0,28.6425,11111222 
TABS,ioos:station:wmo:42051:1,2011-09-06T12:30:00Z,29.6350,-93.6417,2.0,28.608,11111222 
TABS,ioos:station:wmo:42051:1,2011-09-06T13:00:00Z,29.6350,-93.6417,2.0,28.6144,11111222 
TABS,ioos:station:wmo:42051:1,2011-09-06T13:30:00Z,29.6350,-93.6417,2.0,28.5423,11111222 
TABS,ioos:station:wmo:42051:1,2011-09-06T14:00:00Z,29.6350,-93.6417,2.0,28.4848,11111222 
TABS,ioos:station:wmo:42051:1,2011-09-06T14:30:00Z,29.6350,-93.6417,2.0,28.4622,11111222 
TABS,ioos:station:wmo:42051:1,2011-09-06T15:00:00Z,29.6350,-93.6417,2.0,28.463,11111222 
TABS,ioos:station:wmo:42051:1,2011-09-06T15:30:00Z,29.6350,-93.6417,2.0,28.4752,11111222 
TABS,ioos:station:wmo:42051:1,2011-09-06T16:00:00Z,29.6350,-93.6417,2.0,28.4226,11111222 
TABS,ioos:station:wmo:42051:1,2011-09-06T16:30:00Z,29.6350,-93.6417,2.0,28.439,11111222 
TABS,ioos:station:wmo:42051:1,2011-09-06T17:00:00Z,29.6350,-93.6417,2.0,28.4414,11111222 
TABS,ioos:station:wmo:42051:1,2011-09-06T17:30:00Z,29.6350,-93.6417,2.0,28.4494,11111222 
TABS,ioos:station:wmo:42051:1,2011-09-06T18:00:00Z,29.6350,-93.6417,2.0,28.4489,11111222 
TABS,ioos:station:wmo:42051:1,2011-09-06T18:30:00Z,29.6350,-93.6417,2.0,28.4517,11111222 
TABS,ioos:station:wmo:42051:1,2011-09-06T19:00:00Z,29.6350,-93.6417,2.0,28.4569,11111222 
TABS,ioos:station:wmo:42051:1,2011-09-06T19:30:00Z,29.6350,-93.6417,2.0,28.469,11111222 
TABS,ioos:station:wmo:42051:1,2011-09-06T20:00:00Z,29.6350,-93.6417,2.0,28.4576,11111222 
TABS,ioos:station:wmo:42051:1,2011-09-06T20:30:00Z,29.6350,-93.6417,2.0,28.4642,11111222 
TABS,ioos:station:wmo:42051:1,2011-09-06T21:00:00Z,29.6350,-93.6417,2.0,28.4639,11111222 
TABS,ioos:station:wmo:42051:1,2011-09-06T21:30:00Z,29.6350,-93.6417,2.0,28.4585,11111222 
TABS,ioos:station:wmo:42051:1,2011-09-06T22:00:00Z,29.6350,-93.6417,2.0,28.458,11111222 
TABS,ioos:station:wmo:42051:1,2011-09-06T22:30:00Z,29.6350,-93.6417,2.0,28.4776,11111222 
TABS,ioos:station:wmo:42051:1,2011-09-06T23:00:00Z,29.6350,-93.6417,2.0,28.4936,11111222 
TABS,ioos:station:wmo:42051:1,2011-09-06T23:30:00Z,29.6350,-93.6417,2.0,28.5088,11111222 
TABS,ioos:station:wmo:42051:1,2011-09-07T00:00:00Z,29.6350,-93.6417,2.0,28.5196,11111222 
TABS,ioos:station:wmo:42051:1,2011-09-07T00:30:00Z,29.6350,-93.6417,2.0,28.5439,11111222 
TABS,ioos:station:wmo:42051:1,2011-09-07T01:00:00Z,29.6350,-93.6417,2.0,28.5763,11111222 
TABS,ioos:station:wmo:42051:1,2011-09-07T01:30:00Z,29.6350,-93.6417,2.0,28.6143,11111222 
TABS,ioos:station:wmo:42051:1,2011-09-07T02:00:00Z,29.6350,-93.6417,2.0,28.6422,11111222 
TABS,ioos:station:wmo:42051:1,2011-09-07T02:30:00Z,29.6350,-93.6417,2.0,28.6751,11111222 
TABS,ioos:station:wmo:42051:1,2011-09-07T03:00:00Z,29.6350,-93.6417,2.0,28.6999,11111222 
TABS,ioos:station:wmo:42051:1,2011-09-07T03:30:00Z,29.6350,-93.6417,2.0,28.7473,11111222 
TABS,ioos:station:wmo:42051:1,2011-09-07T04:00:00Z,29.6350,-93.6417,2.0,28.7515,11111222 
TABS,ioos:station:wmo:42051:1,2011-09-07T04:30:00Z,29.6350,-93.6417,2.0,28.732,11111222 
TABS,ioos:station:wmo:42051:1,2011-09-07T05:00:00Z,29.6350,-93.6417,2.0,28.7221,11111222 
TABS,ioos:station:wmo:42051:1,2011-09-07T05:30:00Z,29.6350,-93.6417,2.0,28.7365,11111222 
TABS,ioos:station:wmo:42051:1,2011-09-07T06:00:00Z,29.6350,-93.6417,2.0,28.7776,11111222 
TABS,ioos:station:wmo:42051:1,2011-09-07T06:30:00Z,29.6350,-93.6417,2.0,28.7828,11111222 